Miscellaneous Local Product
Issued by NWS Hastings, NE

Home | Current Version | Previous Version | Text Only | Print | Product List | Glossary Off
Versions: 1 2 3 4 5 6 7 8 9 10 11 12 13 14 15 16 17 18 19 20 21 22 23 24 25 26 27 28 29 30 31 32 33 34 35 36 37 38 39 40 41 42 43 44 45 46 47 48 49 50

941
AXUS43 KGID 240102
MISGRI

GID CWA HOURLY WEATHER ROUNDUP
NATIONAL WEATHER SERVICE HASTINGS NE
800 PM CDT FRI JUN 23 2017

NOTE: "FAIR" INDICATES FEW OR NO CLOUDS BELOW 12,000 FEET WITH NO
SIGNIFICANT WEATHER AND/OR OBSTRUCTIONS TO VISIBILITY.

...SOUTH CENTRAL NEBRASKA...

CITY           SKY/WX    TMP DP  RH WIND       PRES   REMARKS
GRAND ISLAND   MOSUNNY   72  45  37 N14       30.09R
HASTINGS       SUNNY     73  45  36 N14       30.10R
KEARNEY        SUNNY     72  43  35 N13       30.10R
ORD            SUNNY     70  38  31 NW13      30.09R
YORK           PTSUNNY   72  46  40 N13       30.07R
AURORA         MOSUNNY   71  45  38 N14       30.08R
LEXINGTON      SUNNY     73  43  34 N12       30.11R
HOLDREGE       SUNNY     72  43  34 N8        30.09S
HEBRON         CLEAR     75  46  35 N9        30.06R

...NEBRASKA PANHANDLE...

CITY           SKY/WX    TMP DP  RH WIND       PRES   REMARKS
CHADRON        SUNNY     70  36  28 NE13G18   30.17R
ALLIANCE       SUNNY     69  29  22 N17       30.18R
SCOTTSBLUFF    CLOUDY    72  29  20 N16G26    30.19R
SIDNEY         PTSUNNY   70  37  29 N14       30.20R

...WESTERN AND NORTH CENTRAL NEBRASKA...

CITY           SKY/WX    TMP DP  RH WIND       PRES   REMARKS
VALENTINE      SUNNY     71  29  21 N18       30.14R
AINSWORTH      SUNNY     68  35  30 N15       30.13R
ONEILL         SUNNY     69  38  31 NW14G21   30.10R
BROKEN BOW     SUNNY     71  41  33 N12       30.12R
IMPERIAL       MOSUNNY   74  36  25 W9        30.14R
NORTH PLATTE   SUNNY     73  39  29 N14G23    30.12R
MCCOOK         SUNNY     77  37  23 NW12      30.10R

...EASTERN NEBRASKA...

CITY           SKY/WX    TMP DP  RH WIND       PRES   REMARKS
NORFOLK        SUNNY     69  37  30 N15G24    30.04R
SO SIOUX CITY  PTCLDY    69  46  43 NW12      30.01R
TEKAMAH        PTCLDY    72  45  37 NW16      30.02R
COLUMBUS       MOSUNNY   71  46  40 NW13      30.06R
ALBION         MOSUNNY   71  39  31 NW8G18    30.08R
OMAHA EPPLEY   MOCLDY    71  48  43 NW13      30.01R
OFFUTT AFB     PTCLDY    71  48  45 NW10      30.01R
MILLARD        CLOUDY    74  51  44 NW12      30.02R
LINCOLN        CLEAR     74  48  39 NW14      30.05R
NEBRASKA CITY  PTCLDY    71  53  53 N8        30.03R
BEATRICE       PTCLDY    73  51  46 N12       30.05R
FALLS CITY     CLEAR     72  52  49 N6        30.01R

...NORTHERN KANSAS...

CITY           SKY/WX    TMP DP  RH WIND       PRES   REMARKS
GOODLAND       MOSUNNY   68  50  52 W6        30.16R
HILL CITY      PTSUNNY   77  48  35 N6        30.09R
NORTON         MOCLDY    75  32  20 NW12      30.08
PHILLIPSBURG   SUNNY     79  43  27 N3        30.08R
SMITH CENTER     N/A     75  45  33 N9        30.08R
HAYS           CLOUDY    77  50  38 W3        30.08R
RUSSELL        CLOUDY    78  47  33 NW6       30.06R
CONCORDIA      CLEAR     77  47  34 N12       30.05R
SALINA         CLEAR     81  47  30 N13       30.04R
TOPEKA         CLEAR     75  58  55 N6        30.01R



USA.gov is the U.S. government's official web portal to all federal, state and local government web resources and services.